{"data":{"norad_id":57110,"intl_designator":"2023-090K","name":"STARLINK-6134","alt_names":[],"object_type":"PAYLOAD","status":"ACTIVE","operator":null,"country":"US","launch_date":"2023-06-23","launch_site_code":"AFETR","launch_vehicle":null,"mission":null,"orbit_class":"UNKNOWN","rcs_meters":null,"size_class":null,"mass_kg":null,"dimensions":null,"purposes":["comms"],"wikipedia_slug":null,"has_3d_model":false,"image_url":null,"decayed_at":null,"tle_current":{"epoch":"2026-05-25T04:32:17.452032Z","epoch_age_seconds":58816,"freshness":"FRESH","line1":"1 57110U 23090K   26145.18909088  .00000978  00000+0  46118-4 0  9996","line2":"2 57110  43.0017 209.3870 0001589 272.2598  87.8072 15.26744167162035","mean_motion":15.26744167,"eccentricity":0.0001589,"inclination_deg":43.0017,"raan_deg":209.387,"arg_perigee_deg":272.2598,"mean_anomaly_deg":87.8072,"bstar":4.6118e-5,"rev_number":16203,"period_min":94.318356089059,"perigee_km":484.46238213131,"apogee_km":486.64366282046,"semimajor_km":6863.6900224759,"source":"CELESTRAK","updated_at":"2026-05-25T13:38:18.241040Z"}}}